Flag for France Weather past 2 weeks in Poitiers, France

Now
61 °F

Fog.


Feels Like: 61 °F
Forecast: 52 / 66 °F
Wind: 8 mph from Northwest

Location: Poitiers Airport

Current Time: Sep 21, 2014 at 10:27:49 AM

Latest Report: Sep 21, 2014 at 10:00 AM


Visibility: 0 mi

Pressure: 30.09 "Hg

Humidity: 100%

Dew point: 61 °F

Location of PoitiersLocation

Historic Weather in Poitiers — Graph

°F

Poitiers temperature yesterday

Maximum temperature yesterday: 79 °F (at 2:30 PM)
Minimum temperature yesterday: 59 °F (at 10:00 PM)
Average temperature yesterday: 66 °F

Past Weeks' High & Low Weather Summary

 TemperatureHumidityPressure
High84 °F (Sep 17, 4:30 PM)100% (Sep 9, 9:00 AM)30.15 "Hg (Sep 9, 9:00 AM)
Low50 °F (Sep 12, 6:30 AM)36% (Sep 10, 5:00 PM)29.68 "Hg (Sep 17, 5:30 AM)
Average67 °F71%29.94 "Hg
* Reported Sep 6 9:00 AM — Sep 21 9:30 AM, Poitiers, Weather by CustomWeather, © 2014

Note: Actual official high and low records may vary slightly from our data, if they occured in-between our weather recording intervals... More about our weather records

Advertising

Poitiers weather history for previous 24 hours

 ConditionsComfort  
Time TempWeatherWind HumidityBarometerVisibility
9:30 AM
Sep 21
61 °FFog.6 mph94%30.07 "Hg0 mi
9:00 AM59 °FFog.3 mph100%30.07 "Hg0 mi
8:30 AM57 °FFog.5 mph100%30.07 "Hg0 mi
8:00 AM54 °FFog.2 mph100%30.07 "HgN/A
7:30 AM54 °FClear.3 mph94%30.07 "HgN/A
7:00 AM55 °FFog.2 mph94%30.07 "Hg0 mi
6:30 AM54 °FClear.2 mph100%30.07 "HgN/A
6:00 AM54 °FLight fog.2 mph100%30.07 "Hg1 mi
5:30 AM54 °FFog.2 mph100%30.07 "Hg2 mi
5:00 AM55 °FFog.2 mph94%30.07 "Hg0 mi
4:30 AM55 °FClear.2 mph94%30.07 "HgN/A
4:00 AM55 °FFog.2 mph94%30.07 "Hg1 mi
3:30 AM57 °FClear.2 mph94%30.07 "HgN/A
3:00 AM55 °FClear.2 mph100%30.07 "HgN/A
2:30 AM55 °FClear.3 mph100%30.04 "HgN/A
2:00 AM55 °FClear.5 mph100%30.04 "HgN/A
1:30 AM55 °FLight fog.5 mph94%30.07 "Hg1 mi
1:00 AM57 °FFog.2 mph94%30.07 "Hg0 mi
12:30 AM59 °FClear.No wind94%30.07 "HgN/A
12:00 AM59 °FClear.No wind94%30.04 "HgN/A
11:30 PM
Sep 20
59 °FClear.2 mph94%30.04 "HgN/A
11:00 PM59 °FClear.2 mph94%30.04 "HgN/A
10:30 PM59 °FClear.6 mph94%30.04 "HgN/A
10:00 PM59 °FClear.6 mph88%30.01 "HgN/A
9:30 PM61 °FClear.6 mph88%30.04 "HgN/A
9:00 PM63 °FBroken clouds.6 mph88%30.01 "HgN/A
8:30 PM63 °FThundershowers. Broken clouds.6 mph88%30.04 "HgN/A
8:00 PM63 °FStrong thunderstorms. Fog.18 mph94%30.04 "Hg1 mi
3:30 PM79 °FClear.7 mph54%29.98 "HgN/A
3:00 PM79 °FClear.3 mph54%29.98 "HgN/A
2:30 PM79 °FClear.5 mph54%30.01 "HgN/A
2:00 PM77 °FClear.5 mph61%30.01 "HgN/A
1:30 PM75 °FClear.3 mph65%30.01 "HgN/A
1:00 PM73 °FClear.3 mph69%30.01 "HgN/A
12:30 PM72 °FClear.6 mph73%30.01 "HgN/A
12:00 PM70 °FMild.5 mph73%30.01 "HgN/A
11:30 AM68 °FClear.5 mph78%30.01 "HgN/A
11:00 AM68 °FClear.3 mph78%29.98 "HgN/A
10:30 AM68 °FClear.7 mph78%29.98 "HgN/A
10:00 AM68 °FMild.7 mph78%29.98 "HgN/A
Weather by CustomWeather, © 2014

See weather overviewHow to use our weather pages